Location: D�pe
(52.6057°N, 8.1808°E)
Time: 01:51:07
(UTC+00:00)

Cosmos 1408 - Pass Details

Date: 29 October 2020
Orbit: 470 x 492 km, 82.6° (Epoch: 23 November)

Event Time Altitude Azimuth Distance (km) Brightness Sun altitude
Rises 16:36:50 0° 1° (N) 2,556 6.1 -5.8°
Reaches altitude 10° 16:39:27 10° 21° (NNE) 1,676 5.0 -6.2°
Maximum altitude 16:42:02 18° 66° (ENE) 1,256 4.0 -6.6°
Drops below altitude 10° 16:44:37 10° 111° (ESE) 1,676 4.8 -7.0°
Sets 16:47:14 0° 131° (SE) 2,556 5.9 -7.4°
